Home > Weather > Camrose > Past weeks

Flag for Canada Past Weather in Camrose, Alberta, Canada — Yesterday and Last 2 Weeks

Now
73 °F

Passing clouds.


Feels Like: 76 °F
Forecast: 53 / 80 °F
Wind: 6 mph from West

Location: Edmonton International

Current Time: Jul 29, 2016 at 12:06:54 PM

Latest Report: Jul 29, 2016 at 11:00 AM


Visibility: 15 mi

Pressure: 30.00 "Hg (27.53 "Hg at 744m altitude)

Humidity: 65%

Dew Point: 61 °F

Location of CamroseLocation

Past Weather in Camrose — Graph

°F

Camrose Temperature Yesterday

Maximum temperature yesterday: 79 °F (at 4:00 PM)
Minimum temperature yesterday: 54 °F (at 11:00 PM)
Average temperature yesterday: 64 °F

High & Low Weather Summary for the Past Weeks

 TemperatureHumidityPressure
High81 °F (Jul 24, 5:00 PM)100% (Jul 15, 5:00 AM)30.20 "Hg (Jul 15, 5:00 AM)
Low46 °F (Jul 15, 6:00 AM)36% (Jul 25, 3:00 PM)29.76 "Hg (Jul 19, 9:00 PM)
Average64 °F76%30.00 "Hg
* Reported Jul 14 11:00 AM — Jul 29 11:00 AM, Camrose, Weather by CustomWeather, © 2016

Note: Actual official high and low records may vary slightly from our data, if they occured in-between our weather recording intervals... More about our weather records

Advertising

Camrose Weather History for the Previous 24 Hours

Scroll right to see more
 ConditionsComfort  
Time TempWeatherWind HumidityBarometerVisibility
11:00 AM
Fri, Jul 29
73 °FPassing clouds.6 mph65%30.00 "Hg15 mi
10:00 AM68 °FPassing clouds.3 mph73%30.01 "Hg15 mi
9:00 AM63 °FPassing clouds.7 mph83%30.02 "Hg15 mi
8:00 AM57 °FPassing clouds.3 mph94%30.04 "Hg15 mi
7:00 AM52 °FScattered clouds.5 mph100%30.04 "Hg15 mi
6:00 AM50 °FPassing clouds.6 mph94%30.04 "Hg15 mi
5:00 AM50 °FPassing clouds.7 mph94%30.03 "Hg15 mi
4:00 AM50 °FPassing clouds.7 mph94%30.03 "Hg15 mi
3:00 AM54 °FPassing clouds.7 mph94%30.05 "Hg15 mi
2:47 AM54 °FPassing clouds.3 mph94%30.06 "Hg15 mi
2:00 AM55 °FThunderstorms. Passing clouds.5 mph94%30.06 "Hg15 mi
1:00 AM52 °FPassing clouds.8 mph94%30.07 "Hg15 mi
12:00 AM52 °FPassing clouds.5 mph94%30.09 "Hg15 mi
11:00 PM
Thu, Jul 28
54 °FPassing clouds.5 mph94%30.11 "Hg15 mi
10:00 PM57 °FBroken clouds.3 mph94%30.09 "Hg15 mi
9:00 PM63 °FPartly sunny.7 mph88%30.06 "Hg15 mi
8:00 PM63 °FCloudy.8 mph83%30.05 "Hg15 mi
7:00 PM68 °FThunderstorms. Cloudy.10 mph73%30.06 "Hg15 mi
6:00 PM70 °FBroken clouds.7 mph73%30.07 "Hg15 mi
5:00 PM75 °FBroken clouds.7 mph61%30.07 "Hg15 mi
4:00 PM79 °FPartly sunny.6 mph51%30.06 "Hg15 mi
3:00 PM77 °FPartly sunny.7 mph54%30.07 "Hg15 mi
2:00 PM75 °FPartly sunny.10 mph61%30.10 "Hg15 mi
1:00 PM72 °FBroken clouds.10 mph69%30.13 "Hg15 mi
12:00 PM68 °FBroken clouds.8 mph78%30.14 "Hg15 mi
Weather by CustomWeather, © 2016

See weather overviewHow to use our weather pages